Погода в Булаево

Казахстан     54°54′08″N   70°26′46″E
темп.,
°C
ветер,
м/с
пор.,
м/с
влажн.,
%
обл.,
%
осадки,
мм/ч
давл.,
гПа
погр.,
м
2 марта, вт
вт200:00−18сз229786 0.1 101620
03:00−20з2310089 0.0 101620
06:00−20з239891 0.1 101739
09:00−19зюз239893 0.1 1016101
12:00−16юз349383 0.1 1016247
15:00−14юз3493100 0.0 1014328
18:00−15ююз3395100 0.1 101483
21:00−19ююз349721 0.0 101446
3 марта, ср
ср300:00−18ююз479821 0.0 101398
03:00−18ююз499771 0.0 1013167
06:00−18ююз5119555 0.0 1012239
09:00−18ююз6129373 0.0 1011316
12:00−14ююз7129385 0.1 1010480
15:00−10ююз71392100 0.3 1009662
18:00−9юз71393100 1.0 1009724
21:00−8юз71593100 0.4 1008669
4 марта, чт
чт400:00−6ююз71493100 0.6 1007621
03:00−3юз71395100 0.5 1005669
06:00−3ююз71395100 1.2 1005671
09:00−2ююз71396100 0.6 1003733
12:000ююз81398100 1.4 1002912
15:000ююз81492100 0.3 1001938
18:000ююз81397100 0.9 1000840
21:00−1юз61296100 0.6 1000601
5 марта, пт
пт500:00−4з61193100 1.3 1002565
03:00−8зюз6139293 0.1 1005474
06:00−12зюз6139265 0.1 1008274
09:00−13юз611910 0.0 1009265
12:00−8юз9169039 0.0 1008652
15:00−7юз101591100 0.5 1007906
18:00−4юз111990100 0.8 10061152
21:00−3юз111990100 0.3 10051093
6 марта, сб
сб600:00−2юз111893100 0.7 10061082
03:00−2юз91694100 0.8 1006935
06:00−2зюз81496100 1.4 1007805
09:00−3зсз5993100 1.8 1008553
12:00−5з6108474 1.8 1010709
15:00−5з610810 0.0 1013834
18:00−7зюз49877 0.0 1015235
21:00−12зюз349116 0.0 101555